Temperature
21 21 21 21 19 18 20 20 20 21 21 22 21 20 19 19 19 18 18 18 18 18 18 18 18 18 18 18 18 18 18 18 18 18 18 18 18 18 18 18 18 18 18 18 18 18 18 18 18
21 21 21 20 18 19 20 20 20 21 22 22 21 20 19 18 18 18 18 18 18 18 18 18 18 18 18 18 18 18 18 18 18 18 18 18 18 18 18 18 18 18 18 18 18 18 18 18 18
21 21 20 18 19 19 20 20 21 22 23 22 21 20 19 18 18 18 18 18 18 18 18 18 18 18 18 18 18 18 18 18 18 18 18 18 18 18 18 18 18 17 17 17 17 17 17 17 17
21 21 20 18 20 20 20 20 21 22 22 22 21 19 19 19 18 18 18 18 18 18 18 18 18 18 18 18 18 18 18 18 18 18 17 17 17 17 17 18 17 17 17 17 17 17 17 17 17
21 21 18 19 20 20 20 21 22 21 22 21 20 18 18 18 18 18 18 18 18 18 18 18 18 18 18 18 18 18 18 17 17 17 17 17 17 17 17 17 17 17 17 17 17 17 17 17 17
21 19 18 19 20 21 21 22 22 21 21 21 20 18 18 18 18 18 18 18 18 18 18 18 18 18 18 18 18 18 17 17 17 17 17 17 17 17 17 17 17 17 17 17 17 17 17 17 17
21 18 19 20 20 21 22 22 22 21 21 21 20 18 18 18 18 18 18 18 18 18 18 18 18 18 18 18 17 17 17 17 17 17 17 17 17 17 17 17 17 17 17 17 17 17 16 16 16
22 18 19 19 20 21 22 22 22 22 21 21 21 19 18 18 18 18 18 18 18 18 18 18 18 17 17 17 17 17 17 17 17 17 17 17 17 17 17 17 17 17 17 16 16 16 16 16 16
22 17 18 20 20 20 22 22 22 22 21 20 20 20 19 19 18 18 18 18 18 18 18 18 18 18 17 17 17 17 17 17 17 17 17 17 17 17 17 17 17 16 16 16 16 16 16 16 16
21 18 20 21 21 21 21 22 22 21 20 19 19 19 19 18 18 18 18 18 18 18 18 18 18 18 17 17 17 17 17 17 17 17 17 17 17 17 17 16 16 16 16 16 16 16 16 16 16
21 19 21 22 22 22 22 22 22 21 19 19 19 19 19 19 18 18 18 18 18 18 18 18 18 18 17 17 17 17 17 17 17 17 17 17 17 17 16 16 16 16 16 16 16 16 16 16 16
21 21 22 22 22 22 22 22 21 21 20 20 20 20 19 19 19 19 19 18 18 18 18 18 18 18 17 17 17 17 17 17 17 17 17 17 17 17 16 16 16 16 16 16 16 16 16 16 16
21 21 22 22 22 22 22 21 21 20 21 20 20 20 19 19 19 19 19 18 18 18 18 18 18 18 17 17 17 17 17 17 17 17 17 17 17 17 16 16 16 16 16 16 16 16 16 16 16
22 22 22 22 22 22 21 21 21 20 20 20 20 20 20 19 19 19 19 19 18 18 18 18 18 18 18 17 17 17 17 17 17 17 17 17 17 17 16 16 16 16 16 16 16 16 16 16 16
22 21 21 21 22 22 21 20 20 20 20 20 19 20 19 19 19 19 19 19 19 18 18 18 18 18 17 17 17 17 17 17 17 17 17 17 17 17 16 16 16 16 16 16 16 16 16 15 15
21 20 19 20 21 21 21 19 19 21 20 19 19 19 19 19 19 19 19 19 19 18 18 18 18 18 17 17 17 17 17 17 17 17 17 17 17 16 16 16 16 16 16 16 16 16 15 15 15
19 19 19 20 21 21 20 19 19 20 20 19 19 19 19 19 19 19 19 19 19 18 18 18 18 18 17 17 17 17 17 17 17 17 17 17 16 16 16 16 16 16 16 16 16 15 15 15 15
19 19 20 20 21 20 19 19 19 20 20 20 20 19 19 19 19 19 19 19 18 18 18 18 18 17 17 17 17 17 17 17 17 17 17 16 16 16 16 16 16 16 16 16 15 15 15 15 15
20 20 19 20 21 20 19 19 19 19 20 19 19 19 19 19 19 19 19 19 18 18 18 18 17 17 17 17 17 17 17 17 17 16 16 16 16 16 16 16 16 16 16 15 15 15 15 15 15
20 20 20 20 21 21 19 19 19 19 19 20 20 19 19 19 19 19 19 19 19 18 18 18 18 17 17 17 17 17 17 17 16 16 16 16 16 16 16 16 16 15 15 15 15 15 15 15 15
20 20 20 20 20 20 19 18 18 19 19 20 20 20 20 19 19 19 19 19 18 18 18 18 17 17 17 17 17 17 17 16 16 16 16 16 16 16 16 16 16 15 15 15 15 15 15 15 14
20 21 21 21 19 18 19 17 18 18 18 18 19 19 19 19 19 19 19 18 18 18 18 18 17 17 17 17 17 17 17 16 16 16 16 16 16 16 16 16 15 15 15 15 15 15 15 15 15
21 21 21 20 19 18 18 17 17 17 18 18 18 19 19 19 19 19 19 18 18 18 18 18 17 17 17 17 17 17 16 16 16 16 16 16 16 16 16 16 15 15 15 15 15 15 15 15 15
21 20 19 17 17 17 18 18 17 17 18 18 18 19 19 19 19 19 19 18 18 18 18 18 17 17 17 17 17 17 16 16 16 16 16 16 16 16 15 15 15 15 15 15 15 15 15 15 15
19 17 16 17 16 17 18 18 17 19 19 19 19 19 19 19 19 19 18 18 18 18 18 17 17 17 17 17 17 17 16 16 16 16 16 16 16 16 15 15 15 15 15 15 15 15 15 15 15
19 17 16 17 17 17 18 18 18 19 20 20 20 20 19 19 19 19 18 18 18 18 17 17 17 17 17 17 17 16 16 16 16 16 16 16 16 16 15 15 15 15 15 15 15 15 15 14 15
19 18 17 16 17 17 17 18 19 19 19 19 19 19 19 19 18 18 18 18 18 17 17 17 17 17 17 17 17 16 16 16 16 16 16 16 16 15 15 15 15 15 15 15 15 15 14 14 14
20 18 16 16 17 16 17 18 17 18 18 18 18 18 18 18 18 18 18 18 17 17 17 17 17 17 16 16 16 16 16 16 16 16 16 16 15 15 15 15 15 15 15 15 15 14 14 14 14
19 19 17 15 15 16 16 17 18 18 18 17 17 18 18 18 18 18 18 17 17 17 17 17 17 16 16 16 16 16 16 16 16 16 16 15 15 15 15 15 15 15 15 15 15 14 14 14 14
19 18 17 16 16 15 15 16 18 18 18 18 18 18 18 18 18 18 17 17 17 17 17 16 16 16 16 16 16 16 16 16 16 15 15 15 15 15 15 15 15 15 15 15 14 14 14 14 14
Wind_Speed
4 4 2 3 5 5 3 1 1 3 4 5 9 10 8 6 4 5 2 6 7 6 8 9 10 10 10 11 11 12 12 12 12 12 12 13 12 13 12 12 12 12 11 11 10 10 10 10 10
3 1 3 4 5 4 2 0 4 4 6 6 8 8 8 6 5 6 3 6 8 8 8 9 11 11 11 11 11 12 12 12 12 12 12 12 12 12 12 12 12 11 11 11 10 10 9 9 9
2 0 3 4 3 3 3 2 4 3 5 5 5 6 5 4 4 3 5 9 8 8 9 10 11 11 11 11 11 11 11 11 11 12 12 12 11 11 11 11 11 10 10 10 9 9 8 8 9
2 4 4 5 3 1 5 3 3 4 6 6 6 6 4 3 3 5 9 10 9 7 9 11 12 11 11 11 11 11 11 11 11 11 11 11 10 10 10 10 10 9 9 9 9 8 8 8 9
3 4 5 3 1 1 2 3 4 5 4 5 7 6 4 3 7 9 10 10 9 7 8 10 12 11 11 11 11 11 11 10 10 10 10 10 10 10 10 9 9 9 9 8 8 8 8 9 9
4 4 4 2 2 2 1 3 5 6 6 6 7 6 3 3 7 8 9 9 9 8 7 9 11 11 11 11 11 10 10 10 10 10 10 10 10 10 9 9 8 8 8 8 8 8 8 9 10
4 4 2 2 2 2 2 3 6 5 5 4 5 6 4 3 5 7 8 8 7 7 6 7 8 10 10 10 10 10 10 9 9 10 10 9 9 9 8 8 7 7 7 7 8 9 9 9 11
5 4 3 1 2 2 1 3 5 6 4 4 5 7 5 5 6 7 8 7 6 5 5 5 7 8 8 8 9 9 8 8 8 9 9 8 8 8 7 6 6 6 6 6 7 8 8 9 10
4 5 2 0 2 1 2 4 3 4 6 4 4 4 5 8 7 7 6 5 5 5 4 4 5 6 7 7 7 7 7 7 7 7 7 7 5 5 5 5 5 5 5 5 5 6 7 8 9
5 3 1 1 3 3 2 3 3 4 6 4 5 5 8 8 8 7 6 5 5 6 5 5 5 5 5 5 5 5 4 5 5 5 5 5 4 4 4 4 4 3 3 4 4 5 5 6 6
4 4 2 2 3 4 3 2 2 6 3 4 7 9 8 7 6 6 5 5 5 5 6 6 6 6 5 3 4 3 3 3 4 4 5 5 4 3 3 2 2 2 4 4 4 5 5 5 6
3 1 2 3 3 4 3 2 4 3 4 6 9 11 8 7 6 6 5 4 4 5 6 6 6 5 5 5 4 4 3 3 3 4 6 5 3 3 3 2 1 2 3 4 4 5 6 7 7
2 1 2 4 4 3 4 4 4 2 4 8 9 9 8 7 5 5 5 5 4 4 4 5 6 6 5 4 3 3 3 3 3 4 5 6 4 3 3 2 2 3 4 4 4 5 5 5 7
3 2 1 3 3 3 5 2 3 3 7 8 9 8 7 7 6 5 5 5 4 4 4 5 6 6 5 4 3 3 4 4 4 4 5 5 5 4 4 3 2 3 5 6 5 5 5 5 6
2 2 2 1 3 3 4 1 3 6 8 8 8 8 7 6 6 6 7 6 5 4 4 5 5 5 5 5 4 3 4 4 4 4 5 6 6 6 5 3 3 4 6 7 6 6 6 5 5
2 3 1 4 3 3 5 3 5 5 8 7 7 7 6 6 6 6 6 5 5 4 3 4 4 5 5 5 4 3 4 4 3 4 5 5 7 7 6 4 3 5 6 6 4 4 4 4 4
2 1 3 3 3 3 4 5 5 5 8 7 7 7 6 5 5 5 5 5 5 4 4 3 3 4 5 5 4 4 4 3 4 4 4 5 6 8 7 4 4 6 5 4 4 3 4 4 3
3 2 2 3 3 4 4 5 6 5 7 8 7 7 7 6 6 6 5 5 5 5 4 4 3 4 4 4 3 3 3 2 3 3 4 5 6 7 7 5 5 6 4 4 4 4 4 3 3
3 2 2 4 4 4 6 6 7 6 6 7 7 7 7 7 5 4 5 5 5 5 5 4 4 3 4 3 3 3 2 2 2 2 4 5 6 6 6 4 4 4 4 4 4 4 4 3 3
1 1 1 3 2 2 4 5 6 6 8 9 9 9 9 7 4 4 4 5 5 5 4 4 4 4 5 4 3 3 3 2 2 1 3 4 6 6 6 5 4 4 4 4 4 4 3 2 2
2 3 3 3 2 2 1 4 4 4 3 4 6 7 7 9 8 6 5 5 5 5 5 5 4 4 5 5 3 3 3 3 2 1 1 2 4 5 5 6 4 4 4 4 3 4 4 3 1
2 3 2 2 2 3 1 3 6 5 3 4 5 6 7 7 7 6 6 5 5 5 5 5 5 5 4 6 6 6 4 3 3 2 2 2 3 4 6 6 5 4 3 4 4 3 3 4 2
4 3 1 1 1 2 1 2 6 1 4 6 7 7 7 7 7 7 6 6 5 5 5 5 5 5 5 6 7 6 4 3 2 2 2 2 2 3 5 5 5 4 3 3 3 3 3 3 3
1 4 6 5 4 2 4 4 5 4 7 6 6 7 7 6 6 6 5 4 4 3 4 5 6 5 5 5 5 6 6 5 5 4 3 2 1 1 3 4 4 4 3 4 3 3 3 2 2
5 6 4 5 3 5 3 3 6 7 6 8 8 8 7 6 6 6 5 4 4 4 4 5 5 4 4 5 6 6 7 7 7 5 5 4 2 2 3 3 4 3 3 3 3 3 3 3 3
1 6 5 3 3 5 3 3 6 4 3 4 5 7 6 6 6 6 6 5 4 5 5 5 6 4 4 5 5 5 6 5 4 5 5 5 4 4 4 4 4 4 4 4 3 3 3 3 3
2 2 6 5 1 2 4 3 4 2 1 2 4 5 6 6 6 6 5 5 5 5 5 6 6 4 4 4 4 3 4 5 5 5 5 4 4 4 4 4 4 3 3 4 4 3 3 3 2
4 5 5 3 1 2 4 3 3 4 3 2 3 4 4 5 5 4 5 5 4 4 4 4 5 4 4 4 4 4 4 4 5 5 5 5 4 4 4 4 4 3 3 4 4 3 2 3 2
0 1 3 3 4 4 2 5 4 6 5 5 4 5 5 5 5 5 4 4 3 3 3 4 3 3 3 3 3 2 3 3 4 4 5 5 5 5 5 5 4 4 3 3 4 4 4 4 2
5 5 5 3 3 3 3 6 5 3 4 5 4 3 4 4 4 4 4 3 2 2 2 3 3 3 3 3 3 3 3 3 4 4 4 4 5 5 5 4 4 4 4 4 4 5 4 4 3
Wind_Direction
326 336 70 52 55 55 57 29 112 55 55 56 71 80 81 61 75 126 178 135 131 130 127 123 120 116 114 110 109 109 110 107 105 103 101 100 97 94 94 92 90 89 89 89 86 82 79 76 73
340 350 59 54 76 80 52 54 81 80 131 116 79 75 76 70 81 113 127 135 131 128 127 125 124 121 117 112 110 110 111 109 107 105 104 102 100 99 98 94 92 90 89 87 84 83 81 76 70
328 45 75 62 81 132 147 168 112 75 98 98 80 56 68 91 104 126 143 139 125 121 125 128 126 124 119 115 113 114 114 112 111 109 108 106 104 103 102 98 95 92 90 88 83 80 80 75 70
48 44 55 65 73 165 155 167 132 92 64 66 95 69 57 62 121 136 134 132 122 120 125 131 128 125 122 119 116 116 117 114 115 113 110 108 107 105 102 100 97 93 90 87 85 79 75 76 75
73 72 61 60 59 53 116 121 110 93 80 78 90 89 59 26 100 123 131 130 127 127 129 131 129 127 126 124 123 123 122 120 120 118 114 111 107 106 105 102 97 95 93 89 86 80 78 79 77
55 66 82 86 91 99 67 104 94 91 98 96 95 101 95 107 112 128 133 135 136 137 136 134 133 130 129 128 129 128 126 124 124 122 119 115 113 111 108 104 99 97 96 91 84 83 83 79 77
95 79 95 135 127 107 123 112 101 101 102 107 112 105 125 140 142 139 133 134 138 139 136 135 135 134 134 133 134 133 130 130 129 127 125 122 121 118 115 112 107 104 100 91 83 82 81 77 78
121 91 49 61 113 120 151 100 116 110 107 109 107 129 160 183 155 131 125 128 136 137 140 143 142 140 138 142 144 142 140 137 137 136 131 127 124 124 126 126 122 115 105 96 86 81 78 75 75
86 74 64 86 141 155 95 85 60 78 91 68 70 129 154 149 134 122 118 122 142 152 160 158 155 155 153 154 154 151 151 150 151 149 144 133 127 133 140 146 141 127 111 101 93 81 73 68 70
86 107 191 176 158 145 111 107 116 85 78 71 70 87 120 132 133 137 144 158 163 168 178 177 174 175 173 165 155 159 162 164 163 163 157 146 143 149 154 159 154 133 104 96 93 77 67 61 63
125 157 172 110 136 124 108 86 81 115 104 152 146 141 140 136 140 150 161 174 181 177 172 178 178 179 176 164 160 166 165 170 175 178 168 160 152 147 146 130 121 90 86 78 64 59 67 70 74
118 147 136 141 126 116 120 104 70 101 171 168 153 149 149 148 156 163 166 171 169 163 179 175 170 174 176 164 161 162 156 162 176 173 163 162 152 144 143 137 133 102 93 85 75 75 73 77 84
117 151 142 139 124 130 106 105 110 127 142 140 142 148 156 159 168 169 166 164 159 162 168 170 169 173 171 161 167 158 165 173 174 163 166 161 150 147 146 134 116 107 103 103 98 91 84 78 84
166 146 135 135 134 136 123 124 113 171 147 145 152 164 170 169 170 165 166 166 171 173 173 170 167 175 165 161 166 165 170 166 153 145 148 146 144 140 128 117 105 106 114 116 107 102 92 85 84
117 86 18 211 162 168 120 54 196 185 152 155 168 173 176 177 173 175 179 176 175 177 175 175 171 167 166 164 168 160 155 144 132 135 129 126 125 130 126 119 113 116 117 109 98 91 88 87 81
60 69 308 263 186 180 132 227 238 187 159 169 178 180 182 188 187 186 181 174 174 169 177 184 167 156 160 157 153 147 140 133 130 128 122 123 129 128 121 119 120 123 117 109 100 95 87 80 79
24 190 227 266 214 168 156 219 238 196 171 180 186 187 188 193 191 190 180 173 171 166 165 160 138 146 154 151 142 138 129 129 133 126 121 118 122 126 123 122 124 122 113 107 112 100 105 99 86
232 223 222 225 234 167 180 224 236 213 184 185 188 191 189 192 200 191 177 171 165 157 151 140 129 134 135 127 114 106 102 113 120 119 123 131 127 126 125 125 123 122 111 97 100 102 93 102 102
211 202 226 239 226 180 204 224 237 224 199 195 196 192 192 201 202 177 169 159 154 151 147 146 139 142 136 134 141 137 140 138 124 140 143 148 137 132 128 126 120 119 120 125 123 115 99 92 102
223 238 244 276 265 187 219 245 241 213 202 198 192 192 192 188 186 181 169 162 165 167 165 158 154 155 157 159 164 161 151 146 144 132 120 141 142 143 138 131 135 129 118 114 121 122 114 121 122
251 203 209 229 323 2 73 308 274 254 210 197 195 183 180 181 184 186 177 180 176 178 179 173 169 164 166 156 131 110 86 73 70 77 104 129 145 142 138 136 134 136 137 144 148 145 143 155 184
270 257 199 145 70 289 164 261 271 242 231 216 208 188 186 183 181 182 179 185 187 192 187 177 171 168 166 154 145 147 152 164 190 179 167 140 134 137 146 146 145 143 144 150 164 159 155 148 173
226 262 292 218 138 311 266 195 284 234 225 233 212 194 185 180 175 181 186 186 187 185 183 181 166 164 166 165 164 160 162 177 164 144 143 141 133 143 150 150 148 151 163 170 167 152 151 155 168
262 25 20 46 73 305 239 179 273 229 212 209 204 195 187 176 170 176 184 175 180 171 164 159 157 171 177 171 166 169 174 173 158 157 165 172 163 161 162 157 153 161 168 177 175 163 159 156 153
59 68 25 2 5 260 253 167 245 242 212 189 185 188 185 170 165 169 173 178 183 173 169 163 157 169 177 174 177 180 181 177 175 174 176 176 178 187 193 166 166 172 179 184 172 157 152 150 145
185 133 151 200 242 286 319 223 259 253 210 170 161 162 160 161 167 175 183 183 186 182 174 167 169 174 174 178 189 189 180 179 186 184 179 182 188 191 184 174 180 182 181 178 162 152 159 151 148
153 185 177 153 256 288 298 307 325 352 47 122 133 140 162 173 173 170 170 170 170 169 172 171 172 177 182 186 187 192 186 183 189 187 179 181 185 180 173 170 176 179 176 168 158 151 158 144 147
166 158 91 107 167 281 301 273 244 242 234 207 176 176 181 177 172 172 170 173 176 174 166 161 164 175 184 185 188 195 193 185 184 177 181 184 186 177 169 174 176 169 167 161 156 152 155 141 149
115 106 115 134 164 164 263 278 245 205 201 192 198 195 185 176 174 174 172 173 168 165 163 164 170 173 178 182 185 187 191 179 167 177 189 189 187 177 174 175 170 167 167 159 158 166 160 153 147
170 174 149 161 233 180 186 270 286 202 196 180 184 197 187 175 170 163 157 144 140 155 170 169 175 179 184 178 165 172 176 164 166 176 189 186 184 180 180 176 172 174 175 168 165 177 171 164 162
Height
1520 1519 1518 1519 1521 1530 1534 1530 1525 1523 1523 1523 1522 1523 1527 1531 1534 1541 1537 1536 1536 1537 1537 1537 1537 1537 1537 1537 1537 1537 1537 1537 1537 1538 1538 1538 1538 1538 1538 1538 1538 1538 1538 1537 1537 1537 1537 1537 1537
1520 1519 1520 1520 1528 1541 1538 1529 1526 1523 1523 1523 1524 1526 1528 1532 1534 1535 1535 1536 1537 1537 1537 1538 1538 1538 1538 1538 1538 1537 1538 1538 1538 1538 1538 1539 1539 1539 1539 1539 1539 1539 1539 1539 1538 1538 1538 1538 1537
1520 1520 1521 1523 1532 1539 1536 1528 1525 1523 1523 1523 1526 1529 1531 1534 1535 1536 1536 1537 1537 1538 1538 1538 1538 1538 1538 1538 1538 1538 1538 1538 1539 1539 1539 1540 1540 1540 1540 1540 1540 1540 1540 1540 1539 1539 1539 1539 1539
1521 1522 1523 1529 1533 1530 1528 1526 1524 1524 1524 1525 1527 1531 1534 1536 1536 1536 1537 1537 1538 1538 1538 1538 1538 1538 1539 1539 1539 1539 1539 1539 1540 1540 1540 1541 1541 1541 1541 1541 1541 1541 1541 1541 1541 1540 1540 1540 1540
1521 1522 1528 1535 1532 1528 1525 1524 1524 1525 1526 1528 1528 1533 1536 1538 1537 1537 1538 1538 1539 1539 1539 1539 1539 1539 1539 1540 1540 1540 1540 1540 1541 1541 1541 1541 1542 1542 1542 1542 1542 1542 1542 1542 1542 1542 1541 1541 1541
1522 1523 1535 1540 1533 1528 1526 1525 1525 1526 1528 1529 1530 1534 1538 1539 1538 1539 1539 1540 1540 1540 1540 1540 1540 1540 1540 1540 1541 1541 1541 1541 1542 1542 1542 1543 1543 1543 1543 1543 1543 1543 1543 1543 1543 1543 1543 1543 1543
1523 1528 1534 1535 1534 1530 1527 1526 1526 1527 1528 1530 1531 1534 1538 1539 1539 1539 1540 1540 1541 1541 1541 1541 1541 1541 1541 1541 1542 1542 1542 1542 1543 1543 1543 1544 1544 1544 1544 1545 1545 1545 1545 1545 1545 1545 1544 1544 1544
1522 1528 1533 1535 1534 1531 1527 1526 1527 1528 1530 1531 1531 1534 1537 1539 1539 1540 1541 1541 1541 1542 1542 1542 1542 1542 1542 1542 1543 1543 1543 1544 1544 1544 1545 1545 1545 1545 1546 1546 1546 1546 1546 1546 1546 1546 1546 1546 1545
1523 1533 1538 1534 1533 1530 1527 1527 1528 1529 1530 1531 1532 1533 1535 1538 1539 1540 1541 1542 1542 1542 1542 1542 1543 1543 1543 1543 1543 1544 1544 1545 1545 1546 1546 1546 1546 1546 1546 1547 1547 1547 1547 1547 1547 1547 1547 1547 1547
1524 1535 1532 1528 1527 1528 1527 1527 1529 1530 1531 1533 1533 1535 1536 1538 1539 1540 1541 1541 1542 1542 1542 1543 1543 1543 1543 1544 1544 1544 1545 1545 1546 1546 1547 1547 1547 1548 1547 1547 1548 1548 1548 1548 1548 1548 1548 1548 1548
1524 1529 1527 1526 1526 1526 1527 1528 1529 1530 1533 1533 1533 1535 1536 1538 1539 1540 1540 1541 1541 1542 1542 1542 1543 1543 1544 1544 1544 1545 1545 1546 1546 1547 1547 1548 1548 1548 1548 1549 1549 1549 1549 1550 1550 1549 1550 1549 1549
1525 1525 1525 1526 1526 1526 1527 1528 1530 1530 1532 1533 1533 1534 1536 1538 1538 1539 1540 1540 1541 1541 1542 1542 1543 1543 1543 1544 1544 1545 1545 1546 1546 1547 1547 1548 1548 1549 1549 1550 1550 1550 1550 1550 1551 1550 1550 1550 1550
1525 1526 1525 1525 1526 1527 1527 1528 1530 1531 1532 1533 1534 1535 1536 1537 1538 1539 1539 1540 1541 1541 1542 1542 1542 1543 1543 1543 1544 1545 1545 1546 1547 1547 1548 1548 1548 1549 1549 1550 1550 1551 1551 1551 1551 1552 1551 1551 1551
1525 1525 1526 1526 1526 1527 1528 1529 1531 1532 1532 1533 1534 1535 1536 1536 1537 1538 1538 1539 1540 1540 1541 1541 1541 1542 1542 1543 1544 1544 1545 1546 1546 1547 1548 1548 1549 1549 1550 1550 1551 1552 1552 1552 1552 1553 1553 1552 1552
1525 1527 1528 1526 1526 1528 1529 1532 1530 1530 1531 1533 1533 1534 1535 1536 1536 1536 1537 1538 1538 1539 1540 1540 1541 1541 1542 1543 1543 1544 1545 1546 1546 1547 1548 1548 1549 1549 1550 1551 1551 1552 1552 1553 1553 1553 1553 1553 1553
1526 1531 1536 1528 1526 1527 1532 1538 1529 1529 1530 1531 1532 1533 1534 1535 1535 1536 1536 1537 1538 1538 1539 1540 1540 1540 1541 1542 1543 1544 1545 1545 1546 1547 1548 1548 1549 1550 1550 1551 1551 1552 1553 1553 1553 1553 1554 1554 1554
1534 1540 1538 1531 1525 1526 1530 1534 1528 1528 1529 1530 1531 1532 1533 1534 1534 1535 1536 1536 1537 1537 1538 1538 1539 1539 1540 1541 1542 1543 1544 1545 1546 1547 1547 1548 1549 1550 1550 1551 1551 1552 1553 1553 1554 1554 1554 1554 1554
1540 1538 1536 1533 1526 1526 1530 1530 1526 1526 1527 1527 1529 1531 1531 1532 1532 1533 1534 1535 1536 1536 1537 1537 1538 1539 1540 1541 1542 1543 1544 1545 1546 1546 1547 1548 1548 1549 1550 1551 1551 1552 1553 1553 1554 1554 1554 1555 1555
1529 1533 1535 1531 1524 1526 1529 1529 1526 1524 1525 1526 1527 1529 1529 1531 1531 1532 1533 1534 1535 1535 1536 1536 1537 1538 1539 1540 1541 1542 1543 1544 1545 1546 1547 1547 1548 1549 1550 1550 1551 1552 1552 1553 1554 1554 1554 1555 1555
1528 1533 1534 1529 1522 1525 1528 1528 1523 1522 1522 1523 1524 1526 1527 1529 1530 1531 1532 1533 1533 1534 1534 1535 1536 1537 1538 1539 1540 1541 1542 1544 1545 1546 1546 1547 1548 1548 1549 1550 1550 1551 1552 1553 1553 1554 1554 1555 1555
1528 1531 1531 1530 1526 1524 1529 1533 1526 1521 1521 1522 1522 1523 1525 1526 1527 1528 1530 1531 1532 1532 1533 1534 1535 1536 1537 1538 1539 1541 1542 1543 1544 1545 1546 1546 1547 1548 1549 1549 1550 1551 1552 1552 1553 1554 1554 1554 1555
1531 1523 1523 1526 1534 1539 1534 1547 1531 1523 1522 1521 1521 1522 1523 1524 1525 1526 1528 1529 1530 1531 1532 1533 1534 1535 1536 1537 1538 1539 1540 1541 1543 1544 1545 1546 1547 1548 1548 1549 1550 1550 1551 1552 1552 1553 1554 1554 1554
1524 1519 1522 1525 1532 1539 1536 1543 1536 1525 1525 1521 1518 1519 1520 1522 1523 1525 1526 1527 1528 1530 1531 1532 1533 1534 1535 1537 1538 1538 1539 1541 1542 1544 1544 1545 1546 1547 1548 1548 1549 1550 1550 1551 1552 1552 1553 1553 1553
1519 1522 1526 1532 1538 1548 1537 1542 1539 1528 1521 1517 1516 1517 1518 1520 1522 1523 1524 1526 1527 1528 1529 1531 1532 1533 1535 1536 1537 1537 1539 1540 1541 1542 1543 1544 1545 1546 1547 1547 1548 1549 1549 1550 1551 1552 1552 1552 1552
1523 1538 1551 1552 1556 1551 1533 1536 1534 1517 1513 1512 1513 1514 1516 1518 1520 1521 1522 1524 1525 1526 1528 1529 1531 1532 1534 1535 1535 1536 1538 1539 1540 1541 1542 1543 1544 1544 1545 1546 1547 1548 1549 1549 1550 1551 1551 1551 1551
1526 1535 1553 1560 1559 1549 1534 1536 1526 1512 1511 1511 1512 1513 1515 1516 1518 1519 1520 1522 1523 1525 1526 1528 1530 1531 1532 1533 1534 1535 1536 1537 1538 1539 1540 1541 1542 1543 1544 1545 1546 1547 1548 1548 1549 1549 1550 1550 1550
1527 1533 1533 1545 1546 1550 1542 1531 1520 1513 1513 1513 1513 1514 1514 1515 1517 1518 1519 1520 1521 1523 1525 1526 1528 1529 1531 1532 1533 1534 1534 1535 1536 1537 1539 1540 1541 1542 1543 1544 1545 1546 1546 1547 1548 1548 1548 1549 1549
1520 1525 1537 1545 1553 1557 1545 1537 1534 1520 1517 1515 1514 1514 1514 1515 1516 1517 1518 1519 1520 1522 1524 1525 1527 1528 1529 1530 1531 1532 1533 1534 1535 1536 1537 1538 1539 1540 1541 1542 1543 1544 1545 1545 1546 1546 1547 1547 1548
1524 1526 1533 1543 1547 1555 1555 1544 1519 1516 1514 1514 1513 1512 1513 1513 1514 1515 1517 1518 1520 1521 1522 1524 1525 1526 1527 1528 1529 1530 1531 1532 1533 1534 1535 1536 1537 1538 1539 1540 1541 1541 1542 1543 1544 1545 1545 1546 1546
1519 1523 1531 1543 1544 1545 1550 1542 1513 1512 1511 1511 1512 1512 1512 1512 1513 1514 1515 1517 1518 1519 1521 1522 1523 1524 1525 1526 1527 1528 1529 1530 1531 1532 1533 1534 1535 1536 1537 1538 1539 1539 1540 1541 1542 1543 1543 1544 1544